Flag for Tajikistan Weather past 2 weeks in Dushanbe, Tajikistan

Now
70 °F

Passing clouds.


Feels Like: 70 °F
Forecast: 67 / 98 °F
Wind: 1 mph from East

Location: Dushanbe Airport

Current Time: Jul 26, 2014 at 4:23:42 AM

Latest Report: Jul 26, 2014 at 4:00 AM


Visibility: 5 mi

Pressure: 29.74 "Hg

Humidity: 57%

Dew point: 54 °F

Location of DushanbeLocation

Historic Weather in Dushanbe — Graph

°F

Dushanbe temperature yesterday

Maximum temperature yesterday: 97 °F (at 1:00 PM)
Minimum temperature yesterday: 70 °F (at 3:00 AM)
Average temperature yesterday: 84 °F

Past Weeks' High & Low Weather Summary

 TemperatureHumidityPressure
High104 °F (Jul 22, 4:30 PM)64% (Jul 16, 6:00 AM)29.80 "Hg (Jul 16, 6:00 AM)
Low64 °F (Jul 18, 4:30 AM)8% (Jul 11, 4:30 PM)29.56 "Hg (Jul 22, 4:00 PM)
Average83 °F29%29.72 "Hg
* Reported Jul 11 3:00 AM — Jul 26 3:30 AM, Dushanbe, Weather by CustomWeather, © 2014

Note: Actual official high and low records may vary slightly from our data, if they occured in-between our weather recording intervals... More about our weather records

Advertising

Dushanbe weather history for previous 24 hours

 ConditionsComfort  
Time TempWeatherWind HumidityBarometerVisibility
3:30 AM
Jul 26
70 °FPassing clouds.1 mph57%29.74 "Hg5 mi
3:00 AM70 °FPassing clouds.3 mph57%29.71 "Hg5 mi
2:30 AM72 °FPassing clouds.1 mph50%29.71 "Hg4 mi
2:00 AM73 °FPassing clouds.3 mph47%29.71 "Hg6 mi
1:30 AM75 °FPassing clouds.1 mph44%29.71 "Hg6 mi
1:00 AM73 °FPassing clouds.3 mph47%29.71 "Hg4 mi
12:30 AM73 °FPassing clouds.3 mph47%29.71 "Hg4 mi
12:00 AM73 °FPassing clouds.3 mph50%29.74 "Hg4 mi
11:30 PM
Jul 25
75 °FPassing clouds.1 mph44%29.71 "Hg4 mi
11:00 PM77 °FPassing clouds.1 mph39%29.71 "Hg4 mi
10:30 PM81 °FPassing clouds.1 mph34%29.71 "Hg5 mi
10:00 PM81 °FPassing clouds.1 mph32%29.71 "Hg4 mi
9:30 PM81 °FPassing clouds.1 mph34%29.68 "Hg4 mi
9:00 PM84 °FPassing clouds.1 mph31%29.68 "Hg4 mi
8:30 PM82 °FPassing clouds.1 mph32%29.68 "Hg4 mi
8:00 PM86 °FPassing clouds.1 mph27%29.68 "Hg4 mi
7:30 PM88 °FPassing clouds.3 mph25%29.68 "Hg4 mi
7:00 PM90 °FPassing clouds.8 mph24%29.65 "Hg4 mi
6:30 PM91 °FPassing clouds.6 mph23%29.65 "Hg4 mi
6:00 PM93 °FPassing clouds.8 mph20%29.65 "Hg5 mi
5:30 PM93 °FPassing clouds.8 mph20%29.65 "Hg5 mi
5:00 PM95 °FPassing clouds.10 mph18%29.65 "Hg5 mi
4:30 PM95 °FPassing clouds.8 mph19%29.65 "Hg4 mi
4:00 PM95 °FPassing clouds.10 mph22%29.68 "Hg4 mi
3:30 PM97 °FSunny.6 mph19%29.68 "Hg4 mi
3:00 PM97 °FSunny.3 mph16%29.68 "Hg4 mi
2:30 PM97 °FPassing clouds.3 mph17%29.68 "Hg4 mi
2:00 PM97 °FPassing clouds.1 mph17%29.71 "Hg4 mi
1:30 PM97 °FPassing clouds.1 mph20%29.71 "Hg4 mi
1:00 PM97 °FPassing clouds.1 mph17%29.71 "Hg4 mi
12:30 PM95 °FPassing clouds.3 mph19%29.74 "Hg4 mi
12:00 PM93 °FPassing clouds.1 mph20%29.74 "Hg4 mi
11:30 AM91 °FPassing clouds.1 mph20%29.74 "Hg4 mi
11:00 AM90 °FPassing clouds.3 mph24%29.77 "Hg4 mi
10:30 AM88 °FHaze.1 mph25%29.77 "Hg3 mi
10:00 AM86 °FHaze.1 mph33%29.77 "Hg3 mi
9:30 AM84 °FHaze.1 mph35%29.77 "Hg3 mi
9:00 AM81 °FHaze.1 mph42%29.77 "Hg3 mi
8:30 AM79 °FHaze.1 mph42%29.77 "Hg3 mi
7:30 AM79 °FHaze.1 mph39%29.77 "Hg3 mi
7:00 AM75 °FPassing clouds.1 mph50%29.77 "Hg4 mi
6:30 AM70 °FPassing clouds.No wind57%29.77 "Hg4 mi
6:00 AM70 °FPassing clouds.1 mph53%29.77 "Hg4 mi
5:30 AM70 °FPassing clouds.1 mph57%29.77 "Hg4 mi
5:00 AM73 °FPassing clouds.1 mph44%29.77 "Hg4 mi
4:30 AM70 °FPassing clouds.3 mph57%29.77 "Hg4 mi
4:00 AM73 °FPassing clouds.1 mph50%29.77 "Hg4 mi
Weather by CustomWeather, © 2014

See weather overviewHow to use our weather pages